CZ-6A DEB

基本信息
目录编号:
54542
目录名称:
CZ-6A DEB
国际标识:
2022-151KS
轨道中心:
EARTH
物体状态:
在轨
发射日期:
2022-11-11 UTC
轨道信息
数据来源: 国际轨道数据
星历时间: 2026-09-05T14:19:07+0800
半长轴: 7226.983km
偏心率: 0.0036864
轨道倾角: 98.832°
近地点辐角: 90.123°
升交点赤经: 251.961°
平近点角: 270.417°
近地点: 822.204km
远地点: 875.488km
周期: 101.905分钟
每日圈数: 14.130817
详细信息
发射场:
TSC
轨道高度:
LEO
数据来源:
AOE Integration Group
参考系:
TEME
时间系统:
UTC
历元类型:
SGP4
2D轨道图
3D轨道图
轨道高度分析图
轨道倾角分析图
轨道综合分析图
查看轨道综合分析图